Regional Weather Roundup
Issued by NWS Nashville, TN

Home | Current Version | Previous Version | Text Only | Print | Product List | Glossary On
Versions: 1 2 3 4 5 6 7 8 9 10 11 12 13 14 15 16 17 18 19 20 21 22 23 24 25 26 27 28 29 30 31 32 33 34 35 36 37 38 39 40 41 42 43 44 45 46 47 48 49 50
000
ASUS44 KOHX 301710
RWROHX
MIDDLE TENNESSEE HOURLY WEATHER ROUNDUP
NATIONAL WEATHER SERVICE NASHVILLE TN
1200 PM CDT TUE JUN 30 2015

NOTE: "FAIR" INDICATES FEW OR NO CLOUDS BELOW 12,000 FEET WITH
NO SIGNIFICANT WEATHER AND/OR OBSTRUCTIONS TO VISIBILITY.

* THESE REPORTS ARE NOT UNDER NWS QUALITY CONTROL AND MAY NOT
  REPORT WEATHER SUCH AS PRECIPITATION AND FOG.


TNZ005>011-023>034-057-059-062>066-078-080-301800
...NORTHERN MIDDLE TENNESSEE...

CITY           SKY/WX    TMP DP  RH WIND       PRES   REMARKS
CLARKSVILLE    PTSUNNY   82  69  64 W6        29.94S
CROSSVILLE     PTSUNNY   78  68  71 W10       30.01F THUNDER
GALLATIN         N/A     82  32  16 VRB3      29.96S
DICKSON        MOSUNNY   81  70  69 W12       29.96S
LIVINGSTON     PTSUNNY   81  69  66 SW9       29.98
NASHVILLE      PTSUNNY   83  70  64 W7        29.94F
ROCKWOOD       PTSUNNY   71  68  90 SE3       30.02S
SMYRNA         TSTM      84  72  65 SW7       29.94F FOG
SPARTA         MOSUNNY   82  73  74 VRB6      29.96F
$$
TNZ056-058-060-061-075>077-079-093>097-301800
...SOUTHERN MIDDLE TENNESSEE...

CITY           SKY/WX    TMP DP  RH WIND       PRES   REMARKS
COLUMBIA       MOSUNNY   84  72  65 VRB6      29.96S
LEWISBURG      PTSUNNY   83  71  66 SW86G184  29.97S SQUALL
MCMINNVILLE    MOSUNNY   82  72  69 SW9       29.97F
SHELBYVILLE    PTSUNNY   82  73  74 SW10      29.98F
TULLAHOMA      PTSUNNY   79  68  69 SW13      30.00F
WINCHESTER     PTSUNNY   79  70  73 SW8       30.00S
$$


...KEY TO REMARKS...
VSB - VISIBILITY IN MILES
WCI - WIND CHILL INDEX
HX  - HEAT INDEX




USA.gov is the U.S. government's official web portal to all federal, state and local government web resources and services.